公告版位

目前日期文章:200905 (26)

瀏覽方式: 標題列表 簡短摘要
發表時間 文章標題 人氣 留言
2009-05-25 980525 - 不想成為骯髒的大人 (87) (0)
2009-05-24 超強30合1-ADOBE軟體破解註冊機KEYGEN下載 (148233) (24)
2009-05-23 980523 - 誰想要兩秒開機的頭腦? (94) (1)
2009-05-21 980521 - 洪智育導演演說隨記 (76) (1)
2009-05-20 980520 - 原本是想談數位電影... (36) (0)
2009-05-19 980519 - 5/14、5/15新一代動物園(!? (50) (1)
2009-05-19 980519 - 我不是楊美英(苦笑 (115) (0)
2009-05-18 980518 - 2009新一代設計展長榮評語 雜蒐 (387) (1)
2009-05-17 980517 - 數位電影中心培訓班課程 (177) (0)
2009-05-17 魔術蛇、蛇方塊、Soma Cube 雜蒐 (8121) (0)
2009-05-17 980517 - 5/16亂晃台北迷路行 (506) (2)
2009-05-11 980511 - 部落格筆戰深思 回與不回 (68) (0)
2009-05-11 980511 - 從朱宅神降為結婚的朱學恆!?(驚 (2201) (1)
2009-05-09 [影音]潘婷廣告Extraordinary Pantene Commercial (繁中字幕) (195) (0)
2009-05-06 980506 - 電影培訓班開訓典禮 (63) (3)
2009-05-06 980506 - 檢測你是不是Designer (154) (0)
2009-05-05 980505 - 我需要Pepakura Designer教學呀!!! (1562) (1)
2009-05-05 980505 - PS裝甲就是這麼厲害(RSS (158) (1)
2009-05-04 MAD KineticTypography 雜蒐 (263) (0)
2009-05-03 980503 - PHOTOSHOP飄逸練習 (79) (0)
2009-05-03 [影音]Charlie The Unicorn 獨角獸查理(1~3中文字幕) (5488) (1)
2009-05-03 980503 - 假日就是睡覺偷懶放縱的RSS (81) (0)
2009-05-03 楊美英&李金佩 雜蒐 (240) (0)
2009-05-03 [轉貼] 台灣動畫將死? (5307) (2)
2009-05-02 好友文章 あなたが選ぶ静止画M@D大賞2008 (0) (0)
2009-05-02 一次上傳多免空網站 雜蒐 (1074) (0)